Regional Weather Roundup
Issued by NWS

Home | Current Version | Previous Version | Text Only | Print | Product List | Glossary On
Versions: 1 2 3 4 5 6 7 8 9 10 11 12 13 14 15 16 17 18 19 20 21 22 23 24 25 26 27 28 29 30 31 32 33 34 35 36 37 38 39 40 41 42 43 44 45 46 47 48 49 50
000
ASHW40 PHFO 291743
RWRHI

WEATHER ROUNDUP FOR HAWAII
NATIONAL WEATHER SERVICE HONOLULU HI
700 AM HST WED JUL 29 2015

THIS IS AN AUTOMATED REPORT THAT HAS NOT BEEN QUALITY CONTROLLED.

NOTE..."FAIR" INDICATES FEW OR NO CLOUDS BELOW 12,000 FEET WITH NO
SIGNIFICANT WEATHER AND/OR OBSTRUCTIONS TO VISIBILITY.

* - THESE SITES REPORT LIMITED FIELDS

HIZ001>004-291800-
KAUAI-NIIHAU-

CITY           SKY/WX    TMP DP  RH WIND       PRES   REMARKS
LIHUE APT      PTSUNNY   80  73  79 E14       29.97R
PORT ALLEN*    NOT AVBL
POIPU*           N/A     79 N/A N/A NE7         N/A
PRINCEVILLE*     N/A     75 N/A N/A MISG        N/A
KOKOLE POINT*  NOT AVBL
MOLOAA DAIRY*  NOT AVBL
WAIMEA HTS*      N/A     81  73  78 CALM        N/A
PUU OPAE*        N/A     75  68  78 NW3         N/A
PUU LUA*       NOT AVBL
MAKAHA RIDGE*    N/A     72  66  83 CALM        N/A
$$

HIZ005>011-291800-
OAHU-

CITY           SKY/WX    TMP DP  RH WIND       PRES   REMARKS
HONOLULU       MOSUNNY   79  72  79 E8        29.94R
KALAELOA       MOSUNNY   76  70  82 CALM      29.96R
KANEOHE MCB    PTSUNNY   80  72  76 E6        29.94R
WHEELER FIELD  MOSUNNY   77  68  73 VRB1      29.99R
BELLOWS*         N/A    N/A N/A N/A E15         N/A
KAHUKU*          N/A    N/A N/A N/A E8G15       N/A
WHEELER*       NOT AVBL
WAIANAE HARBOR NOT AVBL
DILLINGHAM*      N/A     72  68  88 MISG        N/A
KAHUKU TRN*      N/A     75  70  83 E12G22      N/A
KAWAILOA*        N/A     73  68  83 E6G18       N/A
KII*             N/A     81  73  78 E15         N/A
MAKUA RANGE*     N/A     73  68  83 E3          N/A
OAHU FOREST NW   N/A     70  70 100 CALM        N/A
SCHOFIELD BRK*   N/A     72  66  83 MISG        N/A
SCHOFIELD S*   NOT AVBL
WAIANAE VLY*     N/A     90  79  70 MISG        N/A  HX 105
KUAOKALA*        N/A     81  68  65 NE5G12      N/A
HONOULIUULI*   NOT AVBL
MOKUOLOE IS*     N/A    N/A N/A N/A MISG        N/A
PALEHUA*         N/A     70  66  88 NE6G13      N/A
WAIAWA PHB*    NOT AVBL
$$

HIZ012>013-291800-
MOLOKAI-

CITY           SKY/WX    TMP DP  RH WIND       PRES   REMARKS
MOLOKAI AIRPT  SUNNY     77  68  73 N5        29.96R
KALAUPAPA      NOT AVBL
MAKAPULAPAI*     N/A     82  70  65 E16G24      N/A
MOLOKAI 1*       N/A     81  68  65 N1G8        N/A
PUU ALII*        N/A     61  60  97 CALM        N/A
$$

HIZ016-291800-
KAHOOLAWE-

CITY           SKY/WX    TMP DP  RH WIND       PRES   REMARKS
KAHOOLAWE*       N/A     73 N/A N/A E17G32      N/A
HAKIOAWA*        N/A     78  70  76 MISG      30.39R
HONOKANAIA*      N/A     81  71  71 NE15G25   29.95R
KANELOA*         N/A     75  70  83 E20G29      N/A
KEALIALALO*      N/A     77  70  78 E12G33    29.95R
LUA MAKIKA*    NOT AVBL
$$

HIZ014>015-291800-
LANAI-

CITY           SKY/WX    TMP DP  RH WIND       PRES   REMARKS
LANAI CITY     FAIR      71  69  93 E5        30.01R
LANAI 1*         N/A     72  68  88 NE6G12      N/A
$$

HIZ017>028-291800-
MAUI-

CITY           SKY/WX    TMP DP  RH WIND       PRES   REMARKS
KAHULUI        MOSUNNY   74  68  81 SE5       29.95R
KAPALUA-W MAUI MOSUNNY   77  70  78 E7        29.96R
HANA AIRPORT   MOSUNNY   81  72  74 E7        30.01R
HANA*            N/A     79 N/A N/A SE5         N/A
HALEAKALA SUMM   N/A     54  16  22 NE10        N/A
MAALAEA BAY*   NOT AVBL
HALEAKALA*     NOT AVBL
KAUPO GAP*       N/A     64  50  59 W6G14       N/A
KULA 1*          N/A     56  35  46 E6          N/A
$$

HIZ023>026-291800-
BIG ISLAND OF HAWAII COAST AND LOWER SLOPES-

CITY           SKY/WX    TMP DP  RH WIND       PRES   REMARKS
KAILUA KONA    SUNNY     81  66  60 N9        29.90S
HILO           MOSUNNY   74  68  81 SW6       29.98R
HONOKAA*       NOT AVBL
KAWAIHAE MWT*    N/A     81 N/A N/A NE6         N/A
KAWAIHAE*        N/A     82 N/A N/A CALM        N/A
SOUTH POINT*     N/A     75 N/A N/A NE15G23     N/A
UPOLU AIRPORT*   N/A    N/A N/A N/A E15G22      N/A
KAMUELA*       SUNNY     72  63  73 NE24      30.06R
HAKALAU*         N/A     54  41  61 SW3         N/A
KALOKO-HONOKO*   N/A     82  70  65 S3          N/A
PALI 2*          N/A     70  59  68 N12G22      N/A
KEALAKOMO*       N/A     81  68  65 NE12        N/A
KAUPULEHU*       N/A     79  63  57 N6          N/A
KAPAPALA*        N/A     63  58  83 VRB6        N/A
LOWER KAHUKU*    N/A     63  57  82 N3G12       N/A
PUHE CS*         N/A     79  64  61 NE3         N/A
PUHO CS*         N/A     75  65  70 E3          N/A
PTA KEAMUKU*     N/A     64  55  72 CALM        N/A
WAIKOLOA*        N/A     81  64  57 E12G17      N/A
$$

HIZ027>028-291800-
BIG ISLAND OF HAWAII INTERIOR AND SUMMMITS-

CITY           SKY/WX    TMP DP  RH WIND       PRES   REMARKS
BRADSHAW FIELD SUNNY     57  42  56 SE6       30.30R
MK VISITOR CEN   N/A      0   0 100 MISG        N/A
MAUNA KEA*       N/A     45   7  21 SE20        N/A
MAUNA LOA*       N/A     50 -11   7 MISG        N/A
MAUNA LOA 1*   NOT AVBL
PTA KIPUKA*      N/A     61  50  67 SE6         N/A
PTA RANGE 17*    N/A    N/A N/A N/A SE8         N/A
PTA WEST*        N/A     77  45  31 SE12G18     N/A
NENE CABIN*      N/A    N/A N/A N/A NE3G12      N/A
AHUMOA*          N/A     67  49  52 NE3         N/A
PTA PORTABLE*  NOT AVBL
PUU MALI*        N/A     64  46  52 E3          N/A
$$

HIC003-291800-
NORTHWEST ISLANDS-

CITY           SKY/WX    TMP DP  RH WIND       PRES   REMARKS
MIDWAY ISLAND  CLEAR     77  68  73 E13       30.02S
MIDWAY NOS*    NOT AVBL
FRENCH FRIGATE NOT AVBL
$$

PHZ110>124-180-291800-
BUOY REPORTS

STATION/POSITION TIME  TEMP    WIND        PRES    WAVE   SWELL
                       AIR SEA DIR/SP/G            HT/PER HT/DIR
                 (UTC) (F)     (DEG/KT/KT) (MB)    (FT/S) (FT/D)
BUOY 51001       NOT AVBL
BUOY 51101       1700   79 81   90/ 10/ 12 1013.4R   5/14   5/170
BUOY 51100       NOT AVBL
BUOY 51002       1700   81 82  100/ 19/ 23 1011.6R   8/ 8   5/160
BUOY 51003       1700   82 83  100/ 19/ 23 1012.0R   8/ 7   3
BUOY 51004       1557   80 81   60/ 16/ 17 1013.1    7/10   5/160
BARBERS PT BUOY  NOT AVBL
WAIMEA BAY BUOY  1700      80                N/A     3/ 7
KAILUA BAY BUOY  1700      80                N/A     5/ 7   2/140
LANAI BUOY       NOT AVBL
BARBERS PT 2     1700      83                N/A     6/ 8   3/200
PAUWELA MAUI     1700      80                N/A     4/ 7   2/100
HILO             NOT AVBL
KANEOHE BAY BUOY 1700      80                N/A     4/ 7
HANALEI KAUAI    1700      81                N/A     4/ 7
KAHULUI HARBOR   1700   78 81  340/  4/  6 1013.9R
HONOLULU HARBOR  1700   82 82  120/  2/  4 1014.3R
KILO NALU        NOT AVBL
HILO HARBOR      1700   76 76  240/  6/ 10 1015.2R
MOKUOLOE         1700   80 83   70/  9/ 12 1014.6R
NAWILIWILI       1700   80 82   70/  9/ 12 1014.5R
WHOTS BUOY       NOT AVBL
BUOY 51028       NOT AVBL
$$

......................KEY........................................
  SKY/WX - SKY CONDITIONS/PRESENT WEATHER
  TMP    - TEMPERATURE IN FAHRENHEIT
  DWPT   - DEWPOINT IN FAHRENHEIT
  RH     - RELATIVE HUMIDITY IN PERCENT
  WIND   - DIRECTION AND SPEED /MPH FOR ISLANDS...KTS FOR BUOYS/
  PRES   - MEAN SEA LEVEL PRESSURE IN INCHES OF HG
  VSB    - VISIBILITY IN MILES
  HX     - HEAT INDEX
  WCI    - WIND CHILL INDEX
  VRB    - VARIABLE WIND DIRECTION
  N/A    - NOT AVAILABLE


USA.gov is the U.S. government's official web portal to all federal, state and local government web resources and services.